Simultaneous Nadir Overpasses (SNOs) Predictions

Prediction of SNOs between AURA and NPP Satellite Orbit:

Table of predicted SNOs for the next 14.0 days since TLE Epoch: 8/21/2021
Index Date (AURA) Time (AURA) Lat,Lon (AURA) SZA (AURA ) Date (NPP) Time (NPP) Lat,Lon (NPP) SZA (NPP ) Distance(km) Time Diff (sec)
1 08/21/2021 02:51:56 -79.39,-146.93 99.17 08/21/2021 02:51:26 -79.40,-146.83 99.17 2.15 30
2 08/21/2021 03:41:16 79.61, 22.24 80.52 08/21/2021 03:42:04 79.61, 22.26 80.48 0.38 48
3 08/23/2021 19:08:22 -79.48, -30.46 98.44 08/23/2021 19:08:19 -79.48, -30.34 98.46 2.51 3
4 08/23/2021 19:56:47 81.31, 156.69 78.18 08/23/2021 19:58:00 81.03, 157.50 77.99 33.38 73
5 08/26/2021 10:35:29 79.28, -83.55 82.72 08/26/2021 10:34:36 79.29, -83.46 82.74 1.93 53
6 08/26/2021 11:24:49 -79.56, 86.00 97.68 08/26/2021 11:25:13 -79.57, 86.15 97.73 3.20 24
7 08/29/2021 02:51:55 79.40, 33.11 83.44 08/29/2021 02:51:29 79.41, 33.24 83.44 2.81 26
8 08/29/2021 03:41:18 -79.57,-158.09 96.80 08/29/2021 03:42:10 -79.56,-158.19 96.82 2.19 52
9 08/31/2021 18:20:28 -75.37, -35.72 90.72 08/31/2021 18:19:14 -75.61, -36.95 90.52 43.01 74
10 08/31/2021 19:08:24 79.40, 148.99 84.35 08/31/2021 19:08:26 79.39, 148.88 84.37 2.42 2
11 09/03/2021 10:35:29 -79.30, 96.57 94.60 09/03/2021 10:34:40 -79.30, 96.63 94.58 1.43 49



Historial Predications of SNOs between AURA and NPP
